Location: Arborea
(39.7744°N, 8.5819°E)
Time: 23:43:46
(UTC+00:00)

Cosmos 1000 Rocket - Pass Details

Date: 11 October 2023
Orbit: 952 x 993 km, 82.9° (Epoch: 03 December)

Event Time Altitude Azimuth Distance (km) Brightness Sun altitude
Rises 18:10:34 0° 151° (SSE) 3,691 7.2 -15.7°
Enters shadow 18:11:32 - 148° (SSE) 3,365 7.0 -15.9°
Exits shadow 18:18:08 26° 92° (E) 1,834 5.3 -17.2°
Maximum altitude 18:18:34 27° 85° (E) 1,826 5.3 -17.2°
Drops below altitude 10° 18:23:40 10° 31° (NNE) 2,761 6.6 -18.2°
Sets 18:26:35 0° 20° (NNE) 3,711 7.4 -18.8°
